Time,TemperatureF,DewpointF,PressureIn,WindDirection,WindDirectionDegrees,WindSpeedMPH,WindSpeedGustMPH,Humidity,HourlyPrecipIn,Conditions,Clouds,dailyrainin,SoftwareType,DateUTC
2013-06-02 00:01:00,59.0,56.0,29.82,West,272,0.0,-999.0,89,-99.99,,,-99.99,,2013-06-02 07:01:00,
2013-06-02 00:11:00,59.0,56.0,29.82,West,272,0.0,-999.0,89,-99.99,,,-99.99,,2013-06-02 07:11:00,
2013-06-02 00:21:00,59.0,56.0,29.82,West,272,0.0,-999.0,89,-99.99,,,-99.99,,2013-06-02 07:21:00,
2013-06-02 00:31:00,59.0,56.0,29.82,West,272,0.0,-999.0,90,-99.99,,,-99.99,,2013-06-02 07:31:00,
2013-06-02 00:41:00,59.0,56.0,29.82,West,272,0.0,-999.0,90,-99.99,,,-99.99,,2013-06-02 07:41:00,
2013-06-02 00:52:00,59.0,56.0,29.82,West,272,0.0,-999.0,90,-99.99,,,-99.99,,2013-06-02 07:52:00,
2013-06-02 01:01:00,59.0,56.0,29.82,West,273,0.0,-999.0,90,-99.99,,,-99.99,,2013-06-02 08:01:00,
2013-06-02 01:11:00,59.0,56.0,29.82,West,273,0.0,-999.0,90,-99.99,,,-99.99,,2013-06-02 08:11:00,
2013-06-02 01:21:00,58.0,55.0,29.82,West,273,0.0,-999.0,91,-99.99,,,-99.99,,2013-06-02 08:21:00,
2013-06-02 01:31:00,58.0,55.0,29.82,West,273,0.0,-999.0,91,-99.99,,,-99.99,,2013-06-02 08:31:00,
2013-06-02 01:41:00,58.0,55.0,29.82,West,273,0.0,-999.0,91,-99.99,,,-99.99,,2013-06-02 08:41:00,
2013-06-02 01:51:00,58.0,55.0,29.81,West,273,0.0,-999.0,91,-99.99,,,-99.99,,2013-06-02 08:51:00,
2013-06-02 02:01:00,57.0,54.0,29.80,West,273,0.0,-999.0,91,-99.99,,,-99.99,,2013-06-02 09:01:00,
2013-06-02 02:11:00,57.0,54.0,29.80,West,273,0.0,-999.0,91,-99.99,,,-99.99,,2013-06-02 09:11:00,
2013-06-02 02:21:00,58.0,55.0,29.80,West,273,0.0,-999.0,91,-99.99,,,-99.99,,2013-06-02 09:21:00,
2013-06-02 02:33:00,58.0,55.0,29.80,West,273,0.0,-999.0,91,-99.99,,,-99.99,,2013-06-02 09:33:00,
2013-06-02 02:42:00,58.0,55.0,29.80,West,273,0.0,-999.0,91,-99.99,,,-99.99,,2013-06-02 09:42:00,
2013-06-02 02:53:00,57.0,54.0,29.80,West,273,0.0,-999.0,91,-99.99,,,-99.99,,2013-06-02 09:53:00,
2013-06-02 03:02:00,57.0,54.0,29.79,West,273,0.0,-999.0,91,-99.99,,,-99.99,,2013-06-02 10:02:00,
2013-06-02 03:12:00,57.0,54.0,29.79,West,273,0.0,-999.0,91,-99.99,,,-99.99,,2013-06-02 10:12:00,
2013-06-02 03:22:00,57.0,54.0,29.80,West,273,0.0,-999.0,91,-99.99,,,-99.99,,2013-06-02 10:22:00,
2013-06-02 03:32:00,57.0,54.0,29.80,West,273,0.0,-999.0,91,-99.99,,,-99.99,,2013-06-02 10:32:00,
2013-06-02 03:41:00,57.0,54.0,29.80,West,273,0.0,-999.0,91,-99.99,,,-99.99,,2013-06-02 10:41:00,
2013-06-02 03:52:00,57.0,54.0,29.80,West,273,0.0,-999.0,91,-99.99,,,-99.99,,2013-06-02 10:52:00,
2013-06-02 04:02:00,57.0,54.0,29.79,West,272,0.0,-999.0,91,-99.99,,,-99.99,,2013-06-02 11:02:00,
2013-06-02 04:11:00,57.0,54.0,29.79,West,272,0.0,-999.0,91,-99.99,,,-99.99,,2013-06-02 11:11:00,
2013-06-02 04:21:00,56.0,53.0,29.79,West,272,0.0,-999.0,91,-99.99,,,-99.99,,2013-06-02 11:21:00,
2013-06-02 04:32:00,56.0,53.0,29.79,West,272,0.0,-999.0,91,-99.99,,,-99.99,,2013-06-02 11:32:00,
2013-06-02 04:42:00,56.0,53.0,29.79,West,272,0.0,-999.0,91,-99.99,,,-99.99,,2013-06-02 11:42:00,
2013-06-02 04:52:00,56.0,54.0,29.79,West,273,0.0,-999.0,92,-99.99,,,-99.99,,2013-06-02 11:52:00,
2013-06-02 05:01:00,56.0,54.0,29.79,West,273,0.0,-999.0,92,-99.99,,,-99.99,,2013-06-02 12:01:00,
2013-06-02 05:11:00,56.0,54.0,29.79,West,273,0.0,-999.0,92,-99.99,,,-99.99,,2013-06-02 12:11:00,
2013-06-02 05:21:00,55.0,53.0,29.79,West,273,0.0,-999.0,92,-99.99,,,-99.99,,2013-06-02 12:21:00,
2013-06-02 05:31:00,55.0,53.0,29.79,West,273,0.0,-999.0,92,-99.99,,,-99.99,,2013-06-02 12:31:00,
2013-06-02 05:41:00,55.0,53.0,29.79,West,273,0.0,-999.0,92,-99.99,,,-99.99,,2013-06-02 12:41:00,
2013-06-02 05:52:00,56.0,54.0,29.79,West,273,0.0,-999.0,92,-99.99,,,-99.99,,2013-06-02 12:52:00,
2013-06-02 06:01:00,55.0,53.0,29.80,West,273,0.0,-999.0,92,-99.99,,,-99.99,,2013-06-02 13:01:00,
2013-06-02 06:11:00,55.0,53.0,29.80,West,273,0.0,-999.0,92,-99.99,,,-99.99,,2013-06-02 13:11:00,
2013-06-02 06:21:00,55.0,53.0,29.80,West,273,0.0,-999.0,92,-99.99,,,-99.99,,2013-06-02 13:21:00,
2013-06-02 06:32:00,55.0,53.0,29.80,West,272,0.0,-999.0,92,-99.99,,,-99.99,,2013-06-02 13:32:00,
2013-06-02 06:41:00,55.0,53.0,29.80,West,272,0.0,-999.0,92,-99.99,,,-99.99,,2013-06-02 13:41:00,
2013-06-02 06:52:00,55.0,53.0,29.80,West,272,0.0,-999.0,92,-99.99,,,-99.99,,2013-06-02 13:52:00,
2013-06-02 07:01:00,56.0,54.0,29.81,West,272,0.0,-999.0,92,-99.99,,,-99.99,,2013-06-02 14:01:00,
2013-06-02 07:11:00,56.0,54.0,29.81,West,272,0.0,-999.0,92,-99.99,,,-99.99,,2013-06-02 14:11:00,
2013-06-02 07:21:00,56.0,54.0,29.81,West,272,0.0,-999.0,92,-99.99,,,-99.99,,2013-06-02 14:21:00,
2013-06-02 07:32:00,57.0,55.0,29.81,West,273,0.0,-999.0,92,-99.99,,,-99.99,,2013-06-02 14:32:00,
2013-06-02 07:41:00,57.0,55.0,29.81,West,273,0.0,-999.0,92,-99.99,,,-99.99,,2013-06-02 14:41:00,
2013-06-02 07:51:00,58.0,56.0,29.81,West,273,0.0,-999.0,92,-99.99,,,-99.99,,2013-06-02 14:51:00,
2013-06-02 08:01:00,59.0,56.0,29.81,West,273,0.0,-999.0,91,-99.99,,,-99.99,,2013-06-02 15:01:00,
2013-06-02 08:11:00,59.0,56.0,29.81,West,273,0.0,-999.0,91,-99.99,,,-99.99,,2013-06-02 15:11:00,
2013-06-02 08:21:00,61.0,57.0,29.82,West,273,0.0,-999.0,88,-99.99,,,-99.99,,2013-06-02 15:21:00,
2013-06-02 08:32:00,62.0,58.0,29.83,West,272,0.0,-999.0,86,-99.99,,,-99.99,,2013-06-02 15:32:00,
2013-06-02 08:42:00,63.0,58.0,29.83,West,272,0.0,-999.0,85,-99.99,,,-99.99,,2013-06-02 15:42:00,
2013-06-02 08:53:00,63.0,58.0,29.83,West,272,0.0,-999.0,85,-99.99,,,-99.99,,2013-06-02 15:53:00,
2013-06-02 09:03:00,65.0,60.0,29.83,West,273,0.0,-999.0,83,-99.99,,,-99.99,,2013-06-02 16:03:00,
2013-06-02 09:12:00,65.0,60.0,29.83,West,273,0.0,-999.0,83,-99.99,,,-99.99,,2013-06-02 16:12:00,
2013-06-02 09:22:00,66.0,60.0,29.83,West,273,0.0,-999.0,81,-99.99,,,-99.99,,2013-06-02 16:22:00,
2013-06-02 09:32:00,67.0,60.0,29.83,West,273,0.0,-999.0,79,-99.99,,,-99.99,,2013-06-02 16:32:00,
2013-06-02 09:42:00,67.0,60.0,29.83,West,273,0.0,-999.0,79,-99.99,,,-99.99,,2013-06-02 16:42:00,
2013-06-02 09:52:00,68.0,61.0,29.83,West,266,0.0,-999.0,77,-99.99,,,-99.99,,2013-06-02 16:52:00,
2013-06-02 10:02:00,69.0,61.0,29.83,WSW,253,1.0,-999.0,75,-99.99,,,-99.99,,2013-06-02 17:02:00,
2013-06-02 10:12:00,69.0,61.0,29.83,WSW,253,1.0,-999.0,75,-99.99,,,-99.99,,2013-06-02 17:12:00,
2013-06-02 10:22:00,70.0,61.0,29.82,West,261,1.0,-999.0,74,-99.99,,,-99.99,,2013-06-02 17:22:00,
2013-06-02 10:32:00,71.0,61.0,29.83,West,263,1.0,-999.0,71,-99.99,,,-99.99,,2013-06-02 17:32:00,
2013-06-02 10:42:00,71.0,61.0,29.82,West,260,1.0,-999.0,70,-99.99,,,-99.99,,2013-06-02 17:42:00,
2013-06-02 10:51:00,71.0,61.0,29.82,West,260,1.0,-999.0,70,-99.99,,,-99.99,,2013-06-02 17:51:00,
2013-06-02 11:01:00,73.0,62.0,29.82,WSW,248,1.0,-999.0,68,-99.99,,,-99.99,,2013-06-02 18:01:00,
2013-06-02 11:11:00,73.0,62.0,29.82,WSW,248,1.0,-999.0,68,-99.99,,,-99.99,,2013-06-02 18:11:00,
2013-06-02 11:21:00,74.0,62.0,29.82,WSW,247,2.0,-999.0,66,-99.99,,,-99.99,,2013-06-02 18:21:00,
2013-06-02 11:31:00,73.0,61.0,29.82,SSW,213,4.0,-999.0,67,-99.99,,,-99.99,,2013-06-02 18:31:00,
2013-06-02 11:42:00,75.0,62.0,29.82,WSW,248,1.0,-999.0,65,-99.99,,,-99.99,,2013-06-02 18:42:00,
2013-06-02 11:52:00,75.0,62.0,29.82,WSW,248,1.0,-999.0,65,-99.99,,,-99.99,,2013-06-02 18:52:00,
2013-06-02 12:01:00,74.0,61.0,29.82,SW,230,3.0,-999.0,65,-99.99,,,-99.99,,2013-06-02 19:01:00,
2013-06-02 12:11:00,74.0,61.0,29.82,SW,230,3.0,-999.0,65,-99.99,,,-99.99,,2013-06-02 19:11:00,
2013-06-02 12:21:00,74.0,61.0,29.81,West,275,3.0,-999.0,65,-99.99,,,-99.99,,2013-06-02 19:21:00,
2013-06-02 12:31:00,74.0,62.0,29.81,SW,231,4.0,-999.0,66,-99.99,,,-99.99,,2013-06-02 19:31:00,
2013-06-02 12:41:00,74.0,62.0,29.81,SW,231,4.0,-999.0,66,-99.99,,,-99.99,,2013-06-02 19:41:00,
2013-06-02 12:52:00,74.0,62.0,29.81,WSW,255,3.0,-999.0,66,-99.99,,,-99.99,,2013-06-02 19:52:00,
2013-06-02 13:01:00,73.0,62.0,29.81,West,262,6.0,-999.0,68,-99.99,,,-99.99,,2013-06-02 20:01:00,
2013-06-02 13:11:00,73.0,62.0,29.81,West,262,6.0,-999.0,68,-99.99,,,-99.99,,2013-06-02 20:11:00,
2013-06-02 13:21:00,72.0,61.0,29.80,WNW,287,6.0,-999.0,69,-99.99,,,-99.99,,2013-06-02 20:21:00,
2013-06-02 13:31:00,71.0,61.0,29.80,WSW,246,6.0,-999.0,70,-99.99,,,-99.99,,2013-06-02 20:31:00,
2013-06-02 13:42:00,71.0,61.0,29.80,WSW,246,6.0,-999.0,70,-99.99,,,-99.99,,2013-06-02 20:42:00,
2013-06-02 13:52:00,71.0,61.0,29.80,NNW,344,5.0,-999.0,71,-99.99,,,-99.99,,2013-06-02 20:52:00,
2013-06-02 14:01:00,72.0,61.0,29.80,WSW,247,5.0,-999.0,69,-99.99,,,-99.99,,2013-06-02 21:01:00,
2013-06-02 14:11:00,72.0,61.0,29.80,WSW,247,5.0,-999.0,69,-99.99,,,-99.99,,2013-06-02 21:11:00,
2013-06-02 14:21:00,70.0,61.0,29.80,WSW,246,5.0,-999.0,72,-99.99,,,-99.99,,2013-06-02 21:21:00,
2013-06-02 14:33:00,71.0,61.0,29.81,NW,319,5.0,-999.0,71,-99.99,,,-99.99,,2013-06-02 21:33:00,
2013-06-02 14:42:00,71.0,61.0,29.81,NW,319,5.0,-999.0,71,-99.99,,,-99.99,,2013-06-02 21:42:00,
2013-06-02 14:53:00,69.0,60.0,29.81,West,277,6.0,-999.0,73,-99.99,,,-99.99,,2013-06-02 21:53:00,
2013-06-02 15:02:00,68.0,60.0,29.81,WSW,253,5.0,-999.0,75,-99.99,,,-99.99,,2013-06-02 22:02:00,
2013-06-02 15:12:00,68.0,60.0,29.81,WSW,253,5.0,-999.0,75,-99.99,,,-99.99,,2013-06-02 22:12:00,
2013-06-02 15:22:00,67.0,60.0,29.81,West,261,4.0,-999.0,77,-99.99,,,-99.99,,2013-06-02 22:22:00,
2013-06-02 15:32:00,67.0,60.0,29.81,WSW,240,4.0,-999.0,77,-99.99,,,-99.99,,2013-06-02 22:32:00,
2013-06-02 15:42:00,67.0,60.0,29.81,WSW,240,4.0,-999.0,77,-99.99,,,-99.99,,2013-06-02 22:42:00,
2013-06-02 15:52:00,66.0,59.0,29.81,West,273,3.0,-999.0,79,-99.99,,,-99.99,,2013-06-02 22:52:00,
2013-06-02 16:02:00,66.0,60.0,29.81,West,277,2.0,-999.0,80,-99.99,,,-99.99,,2013-06-02 23:02:00,
2013-06-02 16:12:00,66.0,60.0,29.81,West,277,2.0,-999.0,80,-99.99,,,-99.99,,2013-06-02 23:12:00,
2013-06-02 16:22:00,65.0,59.0,29.81,West,263,2.0,-999.0,80,-99.99,,,-99.99,,2013-06-02 23:22:00,
2013-06-02 16:31:00,65.0,59.0,29.81,West,274,1.0,-999.0,80,-99.99,,,-99.99,,2013-06-02 23:31:00,
2013-06-02 16:42:00,65.0,59.0,29.81,West,274,1.0,-999.0,80,-99.99,,,-99.99,,2013-06-02 23:42:00,
2013-06-02 16:52:00,65.0,59.0,29.81,West,273,3.0,-999.0,81,-99.99,,,-99.99,,2013-06-02 23:52:00,
2013-06-02 17:01:00,64.0,58.0,29.81,West,261,2.0,-999.0,82,-99.99,,,-99.99,,2013-06-03 00:01:00,
2013-06-02 17:11:00,64.0,58.0,29.80,WNW,300,2.0,-999.0,82,-99.99,,,-99.99,,2013-06-03 00:11:00,
2013-06-02 17:21:00,64.0,58.0,29.80,WNW,300,2.0,-999.0,82,-99.99,,,-99.99,,2013-06-03 00:21:00,
2013-06-02 17:31:00,64.0,58.0,29.80,WSW,256,2.0,-999.0,82,-99.99,,,-99.99,,2013-06-03 00:31:00,
2013-06-02 17:42:00,64.0,59.0,29.80,West,271,1.0,-999.0,83,-99.99,,,-99.99,,2013-06-03 00:42:00,
2013-06-02 17:52:00,64.0,59.0,29.80,West,271,1.0,-999.0,83,-99.99,,,-99.99,,2013-06-03 00:52:00,
2013-06-02 18:01:00,63.0,58.0,29.80,West,277,0.0,-999.0,84,-99.99,,,-99.99,,2013-06-03 01:01:00,
2013-06-02 18:11:00,63.0,58.0,29.80,West,277,0.0,-999.0,84,-99.99,,,-99.99,,2013-06-03 01:11:00,
2013-06-02 18:21:00,63.0,58.0,29.79,West,277,1.0,-999.0,85,-99.99,,,-99.99,,2013-06-03 01:21:00,
2013-06-02 18:31:00,63.0,58.0,29.80,West,276,1.0,-999.0,85,-99.99,,,-99.99,,2013-06-03 01:31:00,
2013-06-02 18:42:00,63.0,58.0,29.80,West,276,1.0,-999.0,85,-99.99,,,-99.99,,2013-06-03 01:42:00,
2013-06-02 18:52:00,62.0,58.0,29.80,West,276,1.0,-999.0,86,-99.99,,,-99.99,,2013-06-03 01:52:00,
2013-06-02 19:02:00,62.0,58.0,29.80,West,276,1.0,-999.0,87,-99.99,,,-99.99,,2013-06-03 02:02:00,
2013-06-02 19:12:00,62.0,58.0,29.80,West,276,1.0,-999.0,87,-99.99,,,-99.99,,2013-06-03 02:12:00,
2013-06-02 19:22:00,62.0,58.0,29.80,West,275,1.0,-999.0,87,-99.99,,,-99.99,,2013-06-03 02:22:00,
2013-06-02 19:32:00,62.0,58.0,29.80,West,275,1.0,-999.0,87,-99.99,,,-99.99,,2013-06-03 02:32:00,
2013-06-02 19:42:00,62.0,58.0,29.80,West,275,1.0,-999.0,87,-99.99,,,-99.99,,2013-06-03 02:42:00,
2013-06-02 19:52:00,62.0,58.0,29.81,West,275,1.0,-999.0,87,-99.99,,,-99.99,,2013-06-03 02:52:00,
2013-06-02 20:01:00,62.0,58.0,29.81,West,275,1.0,-999.0,87,-99.99,,,-99.99,,2013-06-03 03:01:00,
2013-06-02 20:11:00,62.0,58.0,29.81,West,275,1.0,-999.0,87,-99.99,,,-99.99,,2013-06-03 03:11:00,
2013-06-02 20:22:00,62.0,58.0,29.81,West,275,1.0,-999.0,87,-99.99,,,-99.99,,2013-06-03 03:22:00,
2013-06-02 20:33:00,62.0,58.0,29.81,West,275,0.0,-999.0,87,-99.99,,,-99.99,,2013-06-03 03:33:00,
2013-06-02 20:42:00,62.0,58.0,29.81,West,275,0.0,-999.0,87,-99.99,,,-99.99,,2013-06-03 03:42:00,
2013-06-02 20:53:00,61.0,57.0,29.81,West,275,0.0,-999.0,87,-99.99,,,-99.99,,2013-06-03 03:53:00,
2013-06-02 21:02:00,62.0,58.0,29.82,West,275,0.0,-999.0,87,-99.99,,,-99.99,,2013-06-03 04:02:00,
2013-06-02 21:12:00,62.0,58.0,29.82,West,275,0.0,-999.0,87,-99.99,,,-99.99,,2013-06-03 04:12:00,
2013-06-02 21:23:00,61.0,57.0,29.82,West,275,0.0,-999.0,87,-99.99,,,-99.99,,2013-06-03 04:23:00,
2013-06-02 21:33:00,61.0,57.0,29.83,West,275,0.0,-999.0,87,-99.99,,,-99.99,,2013-06-03 04:33:00,
2013-06-02 21:42:00,61.0,57.0,29.83,West,275,0.0,-999.0,87,-99.99,,,-99.99,,2013-06-03 04:42:00,
2013-06-02 21:53:00,61.0,57.0,29.83,West,275,0.0,-999.0,88,-99.99,,,-99.99,,2013-06-03 04:53:00,
2013-06-02 22:02:00,61.0,57.0,29.84,West,275,0.0,-999.0,88,-99.99,,,-99.99,,2013-06-03 05:02:00,
2013-06-02 22:12:00,61.0,57.0,29.84,West,275,1.0,-999.0,88,-99.99,,,-99.99,,2013-06-03 05:12:00,
2013-06-02 22:22:00,61.0,57.0,29.84,West,275,1.0,-999.0,88,-99.99,,,-99.99,,2013-06-03 05:22:00,
2013-06-02 22:32:00,61.0,57.0,29.84,West,275,0.0,-999.0,88,-99.99,,,-99.99,,2013-06-03 05:32:00,
2013-06-02 22:42:00,61.0,57.0,29.84,West,275,0.0,-999.0,88,-99.99,,,-99.99,,2013-06-03 05:42:00,
2013-06-02 22:52:00,61.0,58.0,29.84,West,275,0.0,-999.0,89,-99.99,,,-99.99,,2013-06-03 05:52:00,
2013-06-02 23:02:00,61.0,58.0,29.83,West,275,0.0,-999.0,89,-99.99,,,-99.99,,2013-06-03 06:02:00,
2013-06-02 23:12:00,61.0,58.0,29.83,West,275,0.0,-999.0,89,-99.99,,,-99.99,,2013-06-03 06:12:00,
2013-06-02 23:22:00,60.0,57.0,29.84,West,275,1.0,-999.0,89,-99.99,,,-99.99,,2013-06-03 06:22:00,
2013-06-02 23:31:00,60.0,57.0,29.84,West,275,1.0,-999.0,90,-99.99,,,-99.99,,2013-06-03 06:31:00,
2013-06-02 23:42:00,60.0,57.0,29.84,West,275,1.0,-999.0,90,-99.99,,,-99.99,,2013-06-03 06:42:00,
2013-06-02 23:52:00,60.0,57.0,29.84,West,275,1.0,-999.0,90,-99.99,,,-99.99,,2013-06-03 06:52:00,